Location: Jackson Park
(37.2862°N, 79.9123°W)
Time: 15:12:29
(UTC+00:00)

Vanguard 1 Rocket - Pass Details

Date: 16 May 2026
Orbit: 656 x 4211 km, 34.3° (Epoch: 8 June)

Event Time Altitude Azimuth Distance (km) Brightness Sun altitude
Rises 18:22:36 0° 213° (SSW) 3,438 10.7 66.8°
Reaches altitude 10° 18:24:56 10° 202° (SSW) 2,741 10.4 66.5°
Maximum altitude 18:30:45 32° 140° (SE) 2,175 9.8 65.7°
Drops below altitude 10° 18:40:28 10° 84° (E) 4,681 10.9 64.2°
Sets 18:45:54 0° 76° (ENE) 6,334 11.4 63.4°
